Location: Avully
(45.9633°N, 6.0228°E)
Time: 03:19:03
(UTC+00:00)

USA 234 - Pass Details

Date: 23 May 2024
Orbit: 1100 x 1107 km, 123.0° (Epoch: 16 June)

Event Time Altitude Azimuth Distance (km) Brightness Sun altitude
Exits shadow 00:56:34 20° 154° (SSE) 2,279 4.5 -20.7°
Maximum altitude 01:01:03 55° 225° (SW) 1,300 3.3 -20.4°
Drops below altitude 10° 01:07:28 10° 302° (WNW) 2,963 5.6 -20.0°
Sets 01:10:01 0° 307° (NW) 3,923 6.3 -19.8°
